sat.trackr.live / text

‹ back to catalog

STARLINK-32294

NORAD 61675 · 2024-193Q

PAYLOAD ACTIVE UNKNOWN

§ Identity

Operator
Country
US
Launch date
2024-10-26
Launch site
AFETR
Launch vehicle
Mass (kg)
RCS (m²)

Purposes: comms

External: N2YO · Heavens-Above · Gunter

§ Orbital elements

Epoch: 2026-05-25T03:05:03.792768Z

Period
94.01 min
Inclination
53.1618°
Eccentricity
0.0001258
Mean motion
15.31699462 rev/d
Perigee alt
469.9 km
Apogee alt
471.6 km
Semi-major
6,848.9 km
B*
4.9079e-5
RAAN
95.6821°
Arg perigee
81.9082°
Mean anomaly
278.2062°
Rev number
8,823

§ Raw data

STARLINK-322941 61675U 24193Q   26145.12851612  .00001158  00000+0  49079-4 0  99952 61675  53.1618  95.6821 0001258  81.9082 278.2062 15.31699462 88230

JSON: /api/v1/satellites/61675 · /tle

For live sub-satellite position, see the globe view (requires WebGL).

§ Visibility from observer

Set your observer location to see the next 7 days of passes ≥ 10°. The values pass through the URL so the page stays shareable.

No JS? Fill the form by hand. The geolocation button needs JavaScript.